Volver al catálogo

STARLINK-5950

ActivoComunicacionesVLEO
NORAD 56913·PAYLOAD·🇺🇸 United States

Lanzado Jun 12, 2023 desde Cape Canaveral Space Force Station

Loading…

Próximos Pases (próximas 24 horas)

TLE

ActualizadoSource: CelesTrak SupGP

Época: Sep 15, 2026, 02:32 UTC

1 56913C 23083AP  26258.10604167 -.00020289  00000+0 -73479-3 0  2581
2 56913  43.0019  80.8163 0001177 259.8528 276.6803 15.27593104    14

Sigue STARLINK-5950 en tiempo real con AllMySat

Download on the App Store